Location: Unspecified
(41.1637°N, 24.2901°E)
Time: 20:32:27
(UTC+01:00)

ARIANE 6 FM1 Upper Stage - Pass Details

Date: 26 January 2026
Orbit: 522 x 609 km, 62.0° (Epoch: 11 February)

Event Time Altitude Azimuth Distance (km) Brightness Sun altitude
Rises 16:53:38 0° 214° (SW) 2,720 7.2 -4.6°
Reaches altitude 10° 16:55:52 10° 214° (SW) 1,816 6.2 -5.0°
Maximum altitude 16:59:57 86° 128° (SE) 545 2.6 -5.7°
Drops below altitude 10° 17:03:58 10° 38° (NE) 1,785 4.7 -6.4°
Enters shadow 17:05:11 - 38° (NE) 2,279 5.3 -6.7°
